Regional Weather Roundup
Issued by NWS

Home | Current Version | Previous Version | Graphics & Text | Print | Product List | Glossary On
Versions: 1 2 3 4 5 6 7 8 9 10 11 12 13 14 15 16 17 18 19 20 21 22 23 24 25 26 27 28 29 30 31 32 33 34 35 36 37 38 39 40 41 42 43 44 45 46 47 48 49 50
000
ASUS43 KLMK 250002
RWRKY
KENTUCKY REGIONAL WEATHER ROUNDUP
NATIONAL WEATHER SERVICE LOUISVILLE KY
800 PM EDT SAT SEP 24 2016

NOTE "FAIR" INDICATES FEW OR NO CLOUDS BELOW 12,000 FEET
WITH NO SIGNIFICANT WEATHER AND/OR OBSTRUCTIONS TO VISIBILITY.

KYZ001>023-026-027-061>063-070>075-250100-
WESTERN AND SOUTH CENTRAL KENTUCKY

CITY           SKY/WX    TMP DP  RH WIND       PRES   REMARKS
PADUCAH        CLEAR     78  69  73 CALM      30.01F
HENDERSON      CLEAR     79  64  61 CALM      30.02F
OWENSBORO      CLEAR    N/A N/A N/A VRB6      30.04F
HOPKINSVILLE   CLEAR     81  67  60 NE6       30.04F
BOWLING GREEN  CLEAR     80  65  59 CALM      30.06F
GLASGOW        CLEAR     74  67  79 CALM      30.07F
$$

KYZ024-025-028>034-038-045-046-053-250100-
NORTH CENTRAL KENTUCKY

CITY           SKY/WX    TMP DP  RH WIND       PRES   REMARKS
LOUISVILLE/SDF PTCLDY    85  62  46 N6        30.06S
LOUISVILLE/LOU CLEAR     85  63  47 NE5       30.07S
FORT KNOX      CLEAR     74  67  79 NW1       30.06S
$$

KYZ035>037-039>044-047>052-055>060-089>105-250100-
NORTHEAST KENTUCKY

CITY           SKY/WX    TMP DP  RH WIND       PRES   REMARKS
LEXINGTON      MOCLDY    81  65  58 N6        30.09S
COVINGTON      PTCLDY    78  67  68 NE9       30.11S
FRANKFORT      CLEAR     82  66  58 NE5       30.08S
$$

KYZ054-064>069-076>088-106>120-250100-
SOUTHEAST KENTUCKY

CITY           SKY/WX    TMP DP  RH WIND       PRES   REMARKS
JACKSON        CLEAR     78  63  59 CALM      30.11S
LONDON         CLEAR     77  65  66 CALM      30.10S
SOMERSET       CLEAR     77  64  65 CALM      30.10S
MIDDLESBORO    CLEAR     75  65  72 CALM      30.10S
MONTICELLO     CLEAR     74  65  73 W7        30.10S
$$





USA.gov is the U.S. government's official web portal to all federal, state and local government web resources and services.